When you browse on this site, cookies collect data to enhance your experience and personalize the content and advertising you see.
Visit our Privacy Policy to learn more. By continuing to use the site, you agree to this use of cookies and data.
  • In Hungary
  • List of Countries
  • For 7 days
  • Water Temperature
  • Weather Map
  • News
  • Weather Widgets
  • user-avatar
    Login

    Hourly Weather Yablunivs'ke

    Today, 10 April, Friday

    Time Temperature Precipitation Wind Pressure Humidity
    00:00 +10°C° 0 mm 3 mps 748 mmHg 54%
    01:00 +10°C° 0 mm 3 mps 748 mmHg 56%
    02:00 +10°C° 0 mm 3 mps 747 mmHg 57%
    03:00 +10°C° 0 mm 3 mps 747 mmHg 60%
    04:00 +10°C° 0 mm 3 mps 747 mmHg 64%
    05:00 +9°C° 0 mm 3 mps 747 mmHg 68%
    06:00 +10°C° 0 mm 4 mps 747 mmHg 72%
    07:00 +11°C° 0 mm 4 mps 747 mmHg 75%
    08:00 +10°C° 0 mm 5 mps 747 mmHg 79%
    09:00 +10°C° 0.2 mm 6 mps 747 mmHg 73%
    10:00 +10°C° 0.2 mm 7 mps 748 mmHg 67%
    11:00 +10°C° 0.2 mm 8 mps 748 mmHg 61%
    12:00 +10°C° 0 mm 7 mps 749 mmHg 55%
    13:00 +10°C° 0 mm 7 mps 749 mmHg 49%
    14:00 +11°C° 0 mm 7 mps 749 mmHg 43%
    15:00 +10°C° 0 mm 7 mps 749 mmHg 42%
    16:00 +10°C° 0 mm 7 mps 750 mmHg 42%
    17:00 +9°C° 0 mm 7 mps 750 mmHg 42%
    18:00 +8°C° 0 mm 6 mps 750 mmHg 46%
    19:00 +7°C° 0 mm 6 mps 750 mmHg 51%
    20:00 +6°C° 0 mm 5 mps 751 mmHg 55%
    21:00 +6°C° 0 mm 5 mps 751 mmHg 56%
    22:00 +5°C° 0 mm 4 mps 751 mmHg 57%
    23:00 +5°C° 0 mm 4 mps 751 mmHg 58%

    Tomorrow, 11 April, Saturday

    Time Temperature Precipitation Wind Pressure Humidity
    00:00 +4°C° 0 mm 4 mps 752 mmHg 61%
    01:00 +4°C° 0 mm 4 mps 752 mmHg 63%
    02:00 +3°C° 0 mm 4 mps 752 mmHg 66%
    03:00 +3°C° 0 mm 4 mps 752 mmHg 67%
    04:00 +2°C° 0 mm 3 mps 752 mmHg 69%
    05:00 +2°C° 0 mm 3 mps 752 mmHg 71%
    06:00 +3°C° 0 mm 4 mps 752 mmHg 65%
    07:00 +3°C° 0 mm 5 mps 752 mmHg 59%
    08:00 +6°C° 0 mm 5 mps 753 mmHg 54%
    09:00 +7°C° 0 mm 6 mps 753 mmHg 50%
    10:00 +8°C° 0 mm 6 mps 753 mmHg 47%
    11:00 +9°C° 0 mm 7 mps 753 mmHg 44%
    12:00 +9°C° 0 mm 7 mps 753 mmHg 41%
    13:00 +9°C° 0 mm 7 mps 753 mmHg 39%
    14:00 +10°C° 0 mm 7 mps 753 mmHg 37%
    15:00 +9°C° 0 mm 7 mps 753 mmHg 37%
    16:00 +9°C° 0 mm 7 mps 754 mmHg 38%
    17:00 +8°C° 0 mm 7 mps 754 mmHg 39%
    18:00 +7°C° 0 mm 6 mps 754 mmHg 44%
    19:00 +6°C° 0 mm 5 mps 755 mmHg 48%
    20:00 +5°C° 0 mm 5 mps 756 mmHg 53%
    21:00 +4°C° 0 mm 4 mps 756 mmHg 54%
    22:00 +3°C° 0 mm 4 mps 756 mmHg 55%
    23:00 +1°C° 0 mm 4 mps 757 mmHg 55%

    Day after tomorrow, 12 April, Sunday

    Time Temperature Precipitation Wind Pressure Humidity
    00:00 +1°C° 0 mm 4 mps 757 mmHg 56%
    01:00 +1°C° 0 mm 3 mps 757 mmHg 57%
    02:00 +1°C° 0 mm 3 mps 757 mmHg 57%
    03:00 0°C° 0 mm 3 mps 758 mmHg 59%
    04:00 0°C° 0 mm 3 mps 758 mmHg 60%
    05:00 -1°C° 0 mm 2 mps 758 mmHg 62%
    06:00 +2°C° 0 mm 2 mps 758 mmHg 56%
    07:00 +3°C° 0 mm 2 mps 759 mmHg 50%
    08:00 +5°C° 0 mm 2 mps 759 mmHg 43%
    09:00 +6°C° 0 mm 2 mps 759 mmHg 39%
    10:00 +7°C° 0 mm 2 mps 759 mmHg 34%
    11:00 +8°C° 0 mm 2 mps 759 mmHg 29%
    12:00 +8°C° 0 mm 2 mps 758 mmHg 28%
    13:00 +9°C° 0 mm 2 mps 758 mmHg 27%
    14:00 +10°C° 0 mm 2 mps 757 mmHg 26%
    15:00 +9°C° 0 mm 3 mps 757 mmHg 28%
    16:00 +9°C° 0 mm 3 mps 757 mmHg 29%
    17:00 +9°C° 0 mm 3 mps 756 mmHg 30%
    18:00 +8°C° 0 mm 2 mps 756 mmHg 33%
    19:00 +7°C° 0 mm 2 mps 756 mmHg 36%
    20:00 +7°C° 0 mm 1 mps 756 mmHg 39%
    21:00 +5°C° 0 mm 2 mps 756 mmHg 41%
    22:00 +5°C° 0 mm 2 mps 755 mmHg 43%
    23:00 +3°C° 0 mm 3 mps 755 mmHg 45%

    13 April, Monday

    Time Temperature Precipitation Wind Pressure Humidity
    00:00 +3°C° 0 mm 3 mps 755 mmHg 47%
    01:00 +3°C° 0 mm 3 mps 755 mmHg 48%
    02:00 +3°C° 0 mm 3 mps 754 mmHg 50%
    03:00 +2°C° 0 mm 3 mps 754 mmHg 50%
    04:00 +2°C° 0 mm 3 mps 753 mmHg 51%
    05:00 +1°C° 0 mm 4 mps 753 mmHg 51%
    06:00 +3°C° 0 mm 5 mps 753 mmHg 50%
    07:00 +5°C° 0 mm 5 mps 752 mmHg 50%
    08:00 +7°C° 0 mm 6 mps 752 mmHg 49%
    09:00 +9°C° 0 mm 7 mps 752 mmHg 48%
    10:00 +10°C° 0 mm 7 mps 751 mmHg 47%
    11:00 +12°C° 0 mm 7 mps 750 mmHg 45%
    12:00 +14°C° 0 mm 7 mps 750 mmHg 44%
    13:00 +15°C° 0 mm 7 mps 749 mmHg 42%
    14:00 +16°C° 0 mm 7 mps 749 mmHg 41%
    15:00 +16°C° 0 mm 7 mps 748 mmHg 42%
    16:00 +16°C° 0 mm 7 mps 747 mmHg 44%
    17:00 +16°C° 0 mm 6 mps 746 mmHg 45%
    18:00 +15°C° 0 mm 6 mps 746 mmHg 48%
    19:00 +14°C° 0 mm 6 mps 746 mmHg 50%
    20:00 +13°C° 0 mm 6 mps 746 mmHg 53%
    21:00 +12°C° 0 mm 7 mps 745 mmHg 53%
    22:00 +11°C° 0 mm 8 mps 745 mmHg 53%
    23:00 +11°C° 0 mm 8 mps 744 mmHg 53%

    14 April, Tuesday

    Time Temperature Precipitation Wind Pressure Humidity
    00:00 +10°C° 0 mm 8 mps 744 mmHg 53%
    01:00 +9°C° 0 mm 8 mps 743 mmHg 53%
    02:00 +7°C° 0 mm 8 mps 742 mmHg 53%
    03:00 +7°C° 0 mm 8 mps 742 mmHg 53%
    04:00 +6°C° 0 mm 8 mps 741 mmHg 53%
    05:00 +6°C° 0 mm 8 mps 741 mmHg 52%
    06:00 +6°C° 0 mm 9 mps 740 mmHg 56%
    07:00 +7°C° 0 mm 9 mps 740 mmHg 59%
    08:00 +7°C° 0 mm 9 mps 740 mmHg 63%
    09:00 +7°C° 0.5 mm 8 mps 740 mmHg 69%
    10:00 +6°C° 0.5 mm 7 mps 740 mmHg 75%
    11:00 +7°C° 0.5 mm 6 mps 741 mmHg 81%
    12:00 +4°C° 1.2 mm 6 mps 741 mmHg 85%
    13:00 +3°C° 1.2 mm 6 mps 741 mmHg 88%
    14:00 +1°C° 1.2 mm 5 mps 742 mmHg 92%
    15:00 +1°C° 0.9 mm 5 mps 742 mmHg 90%
    16:00 +1°C° 0.9 mm 5 mps 742 mmHg 87%
    17:00 +2°C° 0.9 mm 5 mps 742 mmHg 84%
    18:00 +1°C° 0.2 mm 5 mps 743 mmHg 80%
    19:00 +1°C° 0.2 mm 4 mps 743 mmHg 75%
    20:00 +1°C° 0.2 mm 4 mps 744 mmHg 70%
    21:00 +1°C° 0 mm 4 mps 744 mmHg 69%
    22:00 +1°C° 0 mm 4 mps 744 mmHg 68%
    23:00 0°C° 0 mm 4 mps 745 mmHg 67%

    15 April, Wednesday

    Time Temperature Precipitation Wind Pressure Humidity
    00:00 0°C° 0 mm 4 mps 744 mmHg 68%
    01:00 -1°C° 0 mm 4 mps 744 mmHg 69%
    02:00 -1°C° 0 mm 4 mps 744 mmHg 71%
    03:00 -2°C° 0 mm 4 mps 744 mmHg 74%
    04:00 -2°C° 0 mm 4 mps 744 mmHg 77%
    05:00 -2°C° 0 mm 5 mps 744 mmHg 80%
    06:00 -3°C° 0 mm 6 mps 744 mmHg 77%
    07:00 -2°C° 0 mm 7 mps 744 mmHg 75%
    08:00 -1°C° 0 mm 7 mps 745 mmHg 72%
    09:00 -1°C° 0.3 mm 8 mps 745 mmHg 66%
    10:00 0°C° 0.3 mm 8 mps 745 mmHg 61%
    11:00 +1°C° 0.3 mm 8 mps 745 mmHg 55%
    12:00 +2°C° 0.3 mm 8 mps 745 mmHg 52%
    13:00 +2°C° 0.3 mm 8 mps 746 mmHg 49%
    14:00 +4°C° 0.3 mm 8 mps 746 mmHg 46%
    15:00 +4°C° 0.1 mm 8 mps 746 mmHg 47%
    16:00 +2°C° 0.1 mm 8 mps 746 mmHg 47%
    17:00 +3°C° 0.1 mm 7 mps 746 mmHg 48%
    18:00 +3°C° 0.1 mm 6 mps 747 mmHg 53%
    19:00 +2°C° 0.1 mm 5 mps 747 mmHg 59%
    20:00 +1°C° 0.1 mm 4 mps 747 mmHg 64%
    21:00 0°C° 0.1 mm 4 mps 747 mmHg 73%
    22:00 0°C° 0.1 mm 4 mps 746 mmHg 81%
    23:00 -1°C° 0.1 mm 4 mps 746 mmHg 90%
    Show more